Location: Home
(42.5358°N, 72.7383°W)
Time: 11:29:13
(UTC-05:00)

Tiros 1 - Pass Details

Date: 03 December 2021
Orbit: 629 x 664 km, 48.4° (Epoch: 26 January)

Event Time Altitude Azimuth Distance (km) Brightness Sun altitude
Rises 02:18:39 0° 282° (WNW) 2,974 - -51.4°
Reaches altitude 10° 02:22:34 10° 249° (WSW) 2,065 - -50.7°
Maximum altitude 02:24:09 12° 230° (SW) 1,962 - -50.5°
Drops below altitude 10° 02:25:45 10° 210° (SSW) 2,066 - -50.2°
Sets 02:29:42 0° 178° (S) 2,977 - -49.5°
